Time,TemperatureF,DewpointF,PressureIn,WindDirection,WindDirectionDegrees,WindSpeedMPH,WindSpeedGustMPH,Humidity,HourlyPrecipIn,Conditions,Clouds,dailyrainin,SolarRadiationWatts/m^2,SoftwareType,DateUTC
2013-02-27 00:21:00,36.0,19.0,-100.00,ESE,110,13.0,25.0,50,0.00,,,0.00,0.000000,,2013-02-27 09:21:00,
2013-02-27 00:32:00,36.0,19.0,-100.00,ESE,110,13.0,25.0,50,0.00,,,0.00,0.000000,,2013-02-27 09:32:00,
2013-02-27 00:41:00,36.0,19.0,-100.00,ESE,110,13.0,25.0,50,0.00,,,0.00,0.000000,,2013-02-27 09:41:00,
2013-02-27 00:51:00,36.0,19.0,-100.00,ESE,110,13.0,25.0,50,0.00,,,0.00,0.000000,,2013-02-27 09:51:00,
2013-02-27 01:21:00,36.0,19.0,-100.00,SSE,153,10.0,23.0,49,0.00,,,0.00,0.000000,,2013-02-27 10:21:00,
2013-02-27 01:32:00,36.0,19.0,-100.00,SSE,153,10.0,23.0,49,0.00,,,0.00,0.000000,,2013-02-27 10:32:00,
2013-02-27 01:42:00,36.0,19.0,-100.00,SSE,153,10.0,23.0,49,0.00,,,0.00,0.000000,,2013-02-27 10:42:00,
2013-02-27 01:52:00,36.0,19.0,-100.00,SSE,153,10.0,23.0,49,0.00,,,0.00,0.000000,,2013-02-27 10:52:00,
2013-02-27 02:22:00,26.0,16.0,-100.00,NNE,27,6.0,20.0,66,-99.99,,,0.00,0.000000,,2013-02-27 11:22:00,
2013-02-27 02:32:00,26.0,16.0,-100.00,NNE,27,6.0,20.0,66,-99.99,,,0.00,0.000000,,2013-02-27 11:32:00,
2013-02-27 02:41:00,26.0,16.0,-100.00,NNE,27,6.0,20.0,66,-99.99,,,0.00,0.000000,,2013-02-27 11:41:00,
2013-02-27 02:52:00,26.0,16.0,-100.00,NNE,27,6.0,20.0,66,-99.99,,,0.00,0.000000,,2013-02-27 11:52:00,
2013-02-27 03:22:00,30.0,17.0,-100.00,NNE,19,5.0,12.0,57,0.00,,,0.00,0.000000,,2013-02-27 12:22:00,
2013-02-27 03:32:00,30.0,17.0,-100.00,NNE,19,5.0,12.0,57,0.00,,,0.00,0.000000,,2013-02-27 12:32:00,
2013-02-27 03:42:00,30.0,17.0,-100.00,NNE,19,5.0,12.0,57,0.00,,,0.00,0.000000,,2013-02-27 12:42:00,
2013-02-27 03:52:00,30.0,17.0,-100.00,NNE,19,5.0,12.0,57,0.00,,,0.00,0.000000,,2013-02-27 12:52:00,
2013-02-27 04:22:00,32.0,20.0,-100.00,ENE,62,6.0,15.0,61,0.00,,,0.00,0.000000,,2013-02-27 13:22:00,
2013-02-27 04:32:00,32.0,20.0,-100.00,ENE,62,6.0,15.0,61,0.00,,,0.00,0.000000,,2013-02-27 13:32:00,
2013-02-27 04:42:00,32.0,20.0,-100.00,ENE,62,6.0,15.0,61,0.00,,,0.00,0.000000,,2013-02-27 13:42:00,
2013-02-27 04:52:00,32.0,20.0,-100.00,ENE,62,6.0,15.0,61,0.00,,,0.00,0.000000,,2013-02-27 13:52:00,
2013-02-27 05:21:00,31.0,19.0,-100.00,SSW,213,3.0,10.0,61,0.00,,,0.00,0.000000,,2013-02-27 14:21:00,
2013-02-27 05:31:00,31.0,19.0,-100.00,SSW,213,3.0,10.0,61,0.00,,,0.00,0.000000,,2013-02-27 14:31:00,
2013-02-27 05:42:00,31.0,19.0,-100.00,SSW,213,3.0,10.0,61,0.00,,,0.00,0.000000,,2013-02-27 14:42:00,
2013-02-27 05:52:00,31.0,19.0,-100.00,SSW,213,3.0,10.0,61,0.00,,,0.00,0.000000,,2013-02-27 14:52:00,
2013-02-27 06:22:00,26.0,16.0,-100.00,NNE,12,3.0,7.0,64,0.00,,,0.00,0.000000,,2013-02-27 15:22:00,
2013-02-27 06:32:00,26.0,16.0,-100.00,NNE,12,3.0,7.0,64,0.00,,,0.00,0.000000,,2013-02-27 15:32:00,
2013-02-27 06:42:00,26.0,16.0,-100.00,NNE,12,3.0,7.0,64,0.00,,,0.00,0.000000,,2013-02-27 15:42:00,
2013-02-27 06:51:00,26.0,16.0,-100.00,NNE,12,3.0,7.0,64,0.00,,,0.00,0.000000,,2013-02-27 15:51:00,
2013-02-27 07:22:00,26.0,17.0,-100.00,NNE,32,3.0,11.0,68,0.00,,,0.00,0.000000,,2013-02-27 16:22:00,
2013-02-27 07:32:00,26.0,17.0,-100.00,NNE,32,3.0,11.0,68,0.00,,,0.00,0.000000,,2013-02-27 16:32:00,
2013-02-27 07:42:00,26.0,17.0,-100.00,NNE,32,3.0,11.0,68,0.00,,,0.00,0.000000,,2013-02-27 16:42:00,
2013-02-27 07:52:00,26.0,17.0,-100.00,NNE,32,3.0,11.0,68,0.00,,,0.00,0.000000,,2013-02-27 16:52:00,
2013-02-27 08:21:00,28.0,21.0,-100.00,ESE,110,4.0,9.0,75,0.00,,,0.00,0.000000,,2013-02-27 17:21:00,
2013-02-27 08:32:00,28.0,21.0,-100.00,ESE,110,4.0,9.0,75,0.00,,,0.00,0.000000,,2013-02-27 17:32:00,
2013-02-27 08:41:00,28.0,21.0,-100.00,ESE,110,4.0,9.0,75,0.00,,,0.00,0.000000,,2013-02-27 17:41:00,
2013-02-27 08:52:00,28.0,21.0,-100.00,ESE,110,4.0,9.0,75,0.00,,,0.00,0.000000,,2013-02-27 17:52:00,
2013-02-27 09:22:00,29.0,21.0,-100.00,ENE,70,3.0,7.0,73,0.00,,,-99.99,11.000000,,2013-02-27 18:22:00,
2013-02-27 09:32:00,29.0,21.0,-100.00,ENE,70,3.0,7.0,73,0.00,,,-99.99,11.000000,,2013-02-27 18:32:00,
2013-02-27 09:42:00,29.0,21.0,-100.00,ENE,70,3.0,7.0,73,0.00,,,-99.99,11.000000,,2013-02-27 18:42:00,
2013-02-27 09:51:00,29.0,21.0,-100.00,ENE,70,3.0,7.0,73,0.00,,,-99.99,11.000000,,2013-02-27 18:51:00,
2013-02-27 10:21:00,28.0,20.0,-100.00,North,350,5.0,9.0,70,0.00,,,0.00,52.000000,,2013-02-27 19:21:00,
2013-02-27 10:32:00,28.0,20.0,-100.00,North,350,5.0,9.0,70,0.00,,,0.00,52.000000,,2013-02-27 19:32:00,
2013-02-27 10:42:00,28.0,20.0,-100.00,North,350,5.0,9.0,70,0.00,,,0.00,52.000000,,2013-02-27 19:42:00,
2013-02-27 10:51:00,28.0,20.0,-100.00,North,350,5.0,9.0,70,0.00,,,0.00,52.000000,,2013-02-27 19:51:00,
2013-02-27 11:21:00,28.0,17.0,-100.00,NNE,26,6.0,14.0,63,0.00,,,0.00,144.000000,,2013-02-27 20:21:00,
2013-02-27 11:32:00,28.0,17.0,-100.00,NNE,26,6.0,14.0,63,0.00,,,0.00,144.000000,,2013-02-27 20:32:00,
2013-02-27 11:42:00,28.0,17.0,-100.00,NNE,26,6.0,14.0,63,0.00,,,0.00,144.000000,,2013-02-27 20:42:00,
2013-02-27 11:52:00,28.0,17.0,-100.00,NNE,26,6.0,14.0,63,0.00,,,0.00,144.000000,,2013-02-27 20:52:00,
2013-02-27 12:21:00,31.0,18.0,-100.00,ENE,64,4.0,10.0,58,0.00,,,0.00,229.000000,,2013-02-27 21:21:00,
2013-02-27 12:31:00,31.0,18.0,-100.00,ENE,64,4.0,10.0,58,0.00,,,0.00,229.000000,,2013-02-27 21:31:00,
2013-02-27 12:42:00,31.0,18.0,-100.00,ENE,64,4.0,10.0,58,0.00,,,0.00,229.000000,,2013-02-27 21:42:00,
2013-02-27 12:51:00,31.0,18.0,-100.00,ENE,64,4.0,10.0,58,0.00,,,0.00,229.000000,,2013-02-27 21:51:00,
2013-02-27 13:21:00,32.0,17.0,-100.00,North,354,6.0,10.0,54,0.00,,,0.00,322.000000,,2013-02-27 22:21:00,
2013-02-27 13:31:00,32.0,17.0,-100.00,North,354,6.0,10.0,54,0.00,,,0.00,322.000000,,2013-02-27 22:31:00,
2013-02-27 13:41:00,32.0,17.0,-100.00,North,354,6.0,10.0,54,0.00,,,0.00,322.000000,,2013-02-27 22:41:00,
2013-02-27 13:51:00,32.0,17.0,-100.00,North,354,6.0,10.0,54,0.00,,,0.00,322.000000,,2013-02-27 22:51:00,
2013-02-27 14:21:00,39.0,20.0,-100.00,SSE,160,12.0,22.0,47,0.00,,,0.00,348.000000,,2013-02-27 23:21:00,
2013-02-27 14:31:00,39.0,20.0,-100.00,SSE,160,12.0,22.0,47,0.00,,,0.00,348.000000,,2013-02-27 23:31:00,
2013-02-27 14:42:00,39.0,20.0,-100.00,SSE,160,12.0,22.0,47,0.00,,,0.00,348.000000,,2013-02-27 23:42:00,
2013-02-27 14:52:00,39.0,20.0,-100.00,SSE,160,12.0,22.0,47,0.00,,,0.00,348.000000,,2013-02-27 23:52:00,
2013-02-27 15:21:00,37.0,24.0,-100.00,West,271,5.0,25.0,58,0.00,,,0.00,300.000000,,2013-02-28 00:21:00,
2013-02-27 15:32:00,37.0,24.0,-100.00,West,271,5.0,25.0,58,0.00,,,0.00,300.000000,,2013-02-28 00:32:00,
2013-02-27 15:42:00,37.0,24.0,-100.00,West,271,5.0,25.0,58,0.00,,,0.00,300.000000,,2013-02-28 00:42:00,
2013-02-27 15:51:00,37.0,24.0,-100.00,West,271,5.0,25.0,58,0.00,,,0.00,300.000000,,2013-02-28 00:51:00,
2013-02-27 16:21:00,33.0,17.0,-100.00,WNW,292,4.0,11.0,52,0.00,,,0.00,207.000000,,2013-02-28 01:21:00,
2013-02-27 16:31:00,33.0,17.0,-100.00,WNW,292,4.0,11.0,52,0.00,,,0.00,207.000000,,2013-02-28 01:31:00,
2013-02-27 16:41:00,33.0,17.0,-100.00,WNW,292,4.0,11.0,52,0.00,,,0.00,207.000000,,2013-02-28 01:41:00,
2013-02-27 16:51:00,33.0,17.0,-100.00,WNW,292,4.0,11.0,52,0.00,,,0.00,207.000000,,2013-02-28 01:51:00,
2013-02-27 17:22:00,31.0,20.0,-100.00,SE,128,4.0,17.0,62,0.00,,,0.00,56.000000,,2013-02-28 02:22:00,
2013-02-27 17:31:00,31.0,20.0,-100.00,SE,128,4.0,17.0,62,0.00,,,0.00,56.000000,,2013-02-28 02:31:00,
2013-02-27 17:41:00,31.0,20.0,-100.00,SE,128,4.0,17.0,62,0.00,,,0.00,56.000000,,2013-02-28 02:41:00,
2013-02-27 17:51:00,31.0,20.0,-100.00,SE,128,4.0,17.0,62,0.00,,,0.00,56.000000,,2013-02-28 02:51:00,
2013-02-27 18:21:00,31.0,21.0,-100.00,NE,42,3.0,16.0,66,0.00,,,0.00,22.000000,,2013-02-28 03:21:00,
2013-02-27 18:31:00,31.0,21.0,-100.00,NE,42,3.0,16.0,66,0.00,,,0.00,22.000000,,2013-02-28 03:31:00,
2013-02-27 18:41:00,31.0,21.0,-100.00,NE,42,3.0,16.0,66,0.00,,,0.00,22.000000,,2013-02-28 03:41:00,
2013-02-27 18:51:00,31.0,21.0,-100.00,NE,42,3.0,16.0,66,0.00,,,0.00,22.000000,,2013-02-28 03:51:00,
2013-02-27 19:21:00,31.0,23.0,-100.00,North,3,5.0,12.0,72,0.00,,,0.00,3.000000,,2013-02-28 04:21:00,
2013-02-27 19:31:00,31.0,23.0,-100.00,North,3,5.0,12.0,72,0.00,,,0.00,3.000000,,2013-02-28 04:31:00,
2013-02-27 19:41:00,31.0,23.0,-100.00,North,3,5.0,12.0,72,0.00,,,0.00,3.000000,,2013-02-28 04:41:00,
2013-02-27 19:51:00,31.0,23.0,-100.00,North,3,5.0,12.0,72,0.00,,,0.00,3.000000,,2013-02-28 04:51:00,
2013-02-27 20:22:00,32.0,23.0,-100.00,WNW,299,3.0,16.0,68,0.00,,,0.00,0.000000,,2013-02-28 05:22:00,
2013-02-27 20:31:00,32.0,23.0,-100.00,WNW,299,3.0,16.0,68,0.00,,,0.00,0.000000,,2013-02-28 05:31:00,
2013-02-27 20:42:00,32.0,23.0,-100.00,WNW,299,3.0,16.0,68,0.00,,,0.00,0.000000,,2013-02-28 05:42:00,
2013-02-27 20:51:00,32.0,23.0,-100.00,WNW,299,3.0,16.0,68,0.00,,,0.00,0.000000,,2013-02-28 05:51:00,
2013-02-27 21:22:00,32.0,26.0,-100.00,NE,43,5.0,9.0,79,0.00,,,0.00,0.000000,,2013-02-28 06:22:00,
2013-02-27 21:32:00,32.0,26.0,-100.00,NE,43,5.0,9.0,79,0.00,,,0.00,0.000000,,2013-02-28 06:32:00,
2013-02-27 21:41:00,32.0,26.0,-100.00,NE,43,5.0,9.0,79,0.00,,,0.00,0.000000,,2013-02-28 06:41:00,
2013-02-27 21:51:00,32.0,26.0,-100.00,NE,43,5.0,9.0,79,0.00,,,0.00,0.000000,,2013-02-28 06:51:00,
2013-02-27 22:21:00,35.0,22.0,-100.00,SSE,160,10.0,16.0,59,0.00,,,0.00,0.000000,,2013-02-28 07:21:00,
2013-02-27 22:31:00,35.0,22.0,-100.00,SSE,160,10.0,16.0,59,0.00,,,0.00,0.000000,,2013-02-28 07:31:00,
2013-02-27 22:41:00,35.0,22.0,-100.00,SSE,160,10.0,16.0,59,0.00,,,0.00,0.000000,,2013-02-28 07:41:00,
2013-02-27 22:51:00,35.0,22.0,-100.00,SSE,160,10.0,16.0,59,0.00,,,0.00,0.000000,,2013-02-28 07:51:00,
2013-02-27 23:22:00,34.0,22.0,-100.00,SE,143,5.0,14.0,60,0.00,,,0.00,0.000000,,2013-02-28 08:22:00,
2013-02-27 23:32:00,34.0,22.0,-100.00,SE,143,5.0,14.0,60,0.00,,,0.00,0.000000,,2013-02-28 08:32:00,
2013-02-27 23:42:00,34.0,22.0,-100.00,SE,143,5.0,14.0,60,0.00,,,0.00,0.000000,,2013-02-28 08:42:00,
2013-02-27 23:52:00,34.0,22.0,-100.00,SE,143,5.0,14.0,60,0.00,,,0.00,0.000000,,2013-02-28 08:52:00,